Total_Precipitation_Accumulation
0.12 0.21 0.24 0.24 0.22 0.18 0.15 0.12 0.21 0.26 0.37 0.45 0.48 0.61 0.77 0.91 0.91 0.88 0.72 0.62 0.69 0.69 0.75 0.77 0.77 0.84 0.80 0.78 0.84 0.98 1.16 1.28 1.42 1.42 1.40 1.39 1.45 1.49 1.51 1.59 1.59 1.64 1.70 1.73
0.16 0.19 0.24 0.27 0.25 0.19 0.13 0.11 0.16 0.24 0.38 0.50 0.57 0.67 0.74 0.71 0.64 0.59 0.54 0.44 0.42 0.58 0.67 0.63 0.62 0.64 0.60 0.65 0.79 0.94 1.04 1.15 1.35 1.48 1.51 1.49 1.52 1.60 1.64 1.62 1.62 1.64 1.63 1.70
0.25 0.24 0.25 0.34 0.33 0.24 0.15 0.14 0.20 0.32 0.49 0.65 0.55 0.55 0.61 0.63 0.61 0.57 0.54 0.38 0.32 0.40 0.55 0.54 0.54 0.55 0.64 0.78 0.90 1.02 1.16 1.30 1.49 1.58 1.66 1.67 1.61 1.70 1.65 1.65 1.70 1.68 1.63 1.62
0.31 0.42 0.51 0.37 0.30 0.29 0.29 0.26 0.28 0.40 0.42 0.56 0.56 0.61 0.73 0.73 0.71 0.55 0.49 0.39 0.34 0.36 0.40 0.47 0.53 0.60 0.74 1.00 1.20 1.24 1.38 1.57 1.69 1.78 1.74 1.71 1.70 1.73 1.79 1.87 1.89 1.86 1.80 1.71
0.47 0.60 0.52 0.44 0.32 0.36 0.41 0.54 0.55 0.63 0.61 0.56 0.55 0.66 0.74 0.64 0.57 0.57 0.47 0.43 0.42 0.41 0.47 0.55 0.59 0.63 0.83 1.05 1.28 1.41 1.47 1.61 1.78 1.87 1.89 1.91 1.93 1.87 1.92 2.00 1.96 1.91 1.88 1.91
0.59 0.74 0.73 0.61 0.48 0.47 0.58 1.02 0.86 0.79 0.80 0.68 0.63 0.76 0.82 0.79 0.72 0.65 0.57 0.53 0.52 0.52 0.60 0.73 0.81 0.85 0.98 1.11 1.24 1.42 1.51 1.62 1.79 2.00 2.05 2.09 2.20 2.25 2.18 2.12 2.02 2.07 2.09 2.07
0.74 0.80 0.87 0.74 0.68 0.71 1.10 1.38 1.07 0.90 0.86 0.82 0.91 0.93 0.88 0.79 0.79 0.72 0.61 0.63 0.60 0.61 0.69 0.85 0.97 1.06 1.18 1.32 1.44 1.45 1.52 1.65 1.84 2.01 2.11 2.16 2.30 2.39 2.37 2.34 2.32 2.27 2.20 2.22
0.88 1.07 1.24 0.87 0.83 1.23 1.49 1.25 1.24 1.20 1.11 1.00 0.97 0.92 0.88 0.78 0.75 0.69 0.67 0.72 0.72 0.75 0.89 1.07 1.19 1.21 1.28 1.35 1.40 1.42 1.44 1.54 1.67 1.84 1.89 1.97 2.20 2.31 2.38 2.41 2.37 2.28 2.21 2.10
1.17 1.29 1.19 1.00 1.09 1.26 1.38 1.54 1.45 1.33 1.30 1.13 1.10 1.01 0.91 0.81 0.76 0.72 0.69 0.74 0.78 0.83 1.04 1.27 1.40 1.43 1.48 1.37 1.42 1.45 1.49 1.62 1.74 1.83 1.89 2.01 2.10 2.12 2.19 2.26 2.22 2.13 2.12 2.05
1.35 1.39 1.30 1.17 1.05 0.99 1.12 1.23 1.21 1.20 1.19 1.14 1.11 1.05 0.96 0.83 0.74 0.71 0.70 0.66 0.70 0.79 0.88 0.99 1.18 1.34 1.43 1.46 1.51 1.53 1.57 1.62 1.68 1.80 1.83 1.86 1.97 2.06 2.16 2.26 2.34 2.25 2.15 2.05
1.59 1.50 1.37 1.38 1.27 1.15 1.23 1.29 1.21 1.14 1.11 1.12 1.09 1.03 0.89 0.83 0.79 0.74 0.69 0.67 0.71 0.80 0.81 0.86 0.94 1.04 1.12 1.21 1.33 1.39 1.45 1.50 1.55 1.57 1.65 1.73 1.77 1.85 1.87 1.96 1.97 1.96 1.91 1.88
1.90 1.66 1.49 1.47 1.36 1.24 1.29 1.26 1.33 1.39 1.35 1.15 1.04 1.09 1.00 0.86 0.76 0.74 0.73 0.72 0.76 0.78 0.78 0.81 0.85 0.99 1.10 1.18 1.32 1.44 1.52 1.54 1.47 1.43 1.48 1.53 1.56 1.55 1.54 1.47 1.46 1.42 1.42 1.43
1.54 1.39 1.34 1.33 1.29 1.21 1.23 1.15 1.14 1.21 1.24 1.14 1.07 1.03 1.06 0.95 0.86 0.78 0.72 0.69 0.74 0.80 0.78 0.79 0.81 0.92 1.01 1.10 1.21 1.31 1.40 1.44 1.41 1.39 1.45 1.44 1.45 1.48 1.51 1.43 1.32 1.24 1.21 1.20
1.34 1.27 1.27 1.22 1.17 1.16 1.16 1.10 0.99 0.98 1.05 1.06 1.06 1.09 1.15 1.09 0.99 0.92 0.86 0.79 0.74 0.73 0.71 0.73 0.82 0.85 0.93 1.02 1.10 1.16 1.21 1.26 1.33 1.41 1.46 1.51 1.54 1.57 1.64 1.71 1.64 1.46 1.29 1.20
1.39 1.28 1.18 1.03 1.02 1.05 1.03 0.98 0.90 0.86 0.99 1.11 1.05 1.06 1.10 0.98 0.92 0.88 0.84 0.80 0.77 0.75 0.78 0.80 0.85 0.88 0.94 1.05 1.12 1.12 1.13 1.15 1.16 1.23 1.30 1.36 1.37 1.41 1.49 1.58 1.61 1.51 1.36 1.22
1.45 1.32 1.12 0.96 0.98 1.07 1.07 1.04 0.96 0.85 0.82 0.93 0.99 0.96 0.98 0.91 0.82 0.80 0.81 0.84 0.90 0.91 0.92 0.93 0.98 0.94 0.98 1.07 1.13 1.15 1.10 1.11 1.09 1.09 1.09 1.09 1.11 1.16 1.24 1.33 1.38 1.32 1.22 1.10
1.45 1.37 1.20 1.03 0.97 0.97 0.98 1.00 0.96 0.87 0.76 0.78 0.88 0.92 0.94 0.87 0.78 0.76 0.78 0.81 0.86 0.88 0.91 0.98 1.03 1.03 1.09 1.14 1.15 1.15 1.09 1.05 1.02 1.00 0.98 0.98 1.00 1.04 1.08 1.11 1.15 1.10 1.02 0.88
1.32 1.22 1.11 1.03 0.94 0.92 0.93 0.88 0.86 0.87 0.82 0.78 0.81 0.85 0.86 0.91 0.92 0.89 0.85 0.85 0.84 0.80 0.76 0.78 0.85 0.93 1.04 1.15 1.19 1.16 1.03 0.93 0.87 0.85 0.89 0.93 0.95 1.00 1.04 1.03 1.00 0.94 0.87 0.72
1.18 1.13 1.04 1.00 0.98 0.94 0.90 0.85 0.83 0.83 0.78 0.73 0.78 0.84 0.87 0.90 0.98 0.96 0.90 0.90 0.96 0.98 0.86 0.75 0.81 0.81 0.87 1.04 1.16 1.17 1.04 0.91 0.83 0.78 0.78 0.81 0.84 0.90 0.94 0.91 0.83 0.76 0.70 0.65
1.18 1.21 1.20 1.17 1.10 1.05 0.96 0.86 0.83 0.83 0.78 0.74 0.75 0.78 0.83 0.86 0.94 0.98 0.97 0.90 0.91 1.00 0.98 0.89 0.78 0.71 0.73 0.87 1.08 1.06 1.00 0.93 0.83 0.73 0.74 0.79 0.82 0.86 0.87 0.85 0.77 0.71 0.67 0.64
1.20 1.28 1.26 1.21 1.15 1.03 0.91 0.84 0.84 0.84 0.80 0.80 0.82 0.83 0.87 0.88 0.87 0.97 1.06 0.97 0.83 0.89 0.95 0.90 0.78 0.69 0.67 0.78 0.97 1.00 0.95 0.89 0.80 0.70 0.67 0.70 0.73 0.79 0.82 0.82 0.77 0.69 0.67 0.68
1.34 1.41 1.29 1.13 1.07 0.97 0.85 0.79 0.76 0.73 0.72 0.79 0.86 0.90 1.01 1.05 1.00 0.99 0.95 0.92 0.89 0.96 0.95 0.86 0.77 0.67 0.61 0.66 0.75 0.87 0.85 0.79 0.72 0.65 0.58 0.59 0.65 0.72 0.73 0.72 0.69 0.65 0.64 0.65
1.31 1.27 1.17 1.00 0.96 0.84 0.70 0.67 0.66 0.63 0.64 0.73 0.87 1.02 1.22 1.23 1.16 1.20 1.06 0.84 0.82 0.93 0.90 0.84 0.78 0.67 0.58 0.56 0.63 0.70 0.73 0.74 0.70 0.61 0.52 0.52 0.56 0.60 0.63 0.58 0.58 0.58 0.54 0.50
1.11 1.01 0.91 0.80 0.83 0.80 0.74 0.70 0.68 0.66 0.68 0.74 0.79 0.95 1.23 1.38 1.20 0.98 0.92 0.88 0.85 0.83 0.78 0.79 0.73 0.64 0.60 0.55 0.56 0.63 0.69 0.73 0.68 0.61 0.53 0.53 0.53 0.54 0.57 0.54 0.52 0.48 0.43 0.43
1.09 0.92 0.78 0.75 0.85 0.95 0.92 0.86 0.83 0.82 0.85 0.87 0.82 0.86 1.02 1.27 1.30 0.98 0.78 0.70 0.73 0.72 0.70 0.74 0.75 0.71 0.61 0.53 0.53 0.62 0.69 0.71 0.71 0.65 0.60 0.60 0.57 0.58 0.57 0.54 0.51 0.48 0.47 0.47
1.05 0.94 0.83 0.77 0.81 0.96 1.03 1.04 1.10 1.12 1.19 1.26 1.17 1.04 1.07 1.14 1.07 0.92 0.78 0.65 0.63 0.66 0.63 0.66 0.71 0.74 0.64 0.56 0.56 0.62 0.67 0.72 0.72 0.68 0.66 0.64 0.59 0.58 0.57 0.56 0.54 0.52 0.49 0.47
1.08 0.98 0.91 0.85 0.84 0.93 1.05 1.19 1.31 1.38 1.49 1.64 1.62 1.33 1.20 1.20 1.11 0.98 0.85 0.74 0.71 0.69 0.65 0.61 0.60 0.62 0.65 0.64 0.62 0.61 0.65 0.72 0.72 0.72 0.70 0.64 0.59 0.57 0.55 0.50 0.48 0.47 0.43 0.39